When you browse on this site, cookies collect data to enhance your experience and personalize the content and advertising you see.
Visit our Privacy Policy to learn more. By continuing to use the site, you agree to this use of cookies and data.
  • In Schweiz
  • Länderverzeichnis
  • Für 7 Tage
  • Wassertemperatur
  • Satellitenkarten
  • Wetterkarte
  • Widgets
  • user-avatar
    Anmelden

    Stündliche Wetter Francistown

    Heute, 17 November, Samstag

    Zeit Temperatur Niederschläge Wind Luftdruck Luftfeuchtigkeit
    00:00 +26°C° 0 mm 4 m/S 678 mmHg 28%
    01:00 +25°C° 0 mm 4 m/S 678 mmHg 29%
    02:00 +23°C° 0 mm 4 m/S 678 mmHg 30%
    03:00 +24°C° 0 mm 3 m/S 678 mmHg 32%
    04:00 +22°C° 0 mm 3 m/S 678 mmHg 33%
    05:00 +21°C° 0 mm 3 m/S 677 mmHg 35%
    06:00 +25°C° 0 mm 3 m/S 678 mmHg 32%
    07:00 +27°C° 0 mm 4 m/S 679 mmHg 28%
    08:00 +29°C° 0 mm 4 m/S 679 mmHg 25%
    09:00 +32°C° 0 mm 4 m/S 679 mmHg 22%
    10:00 +34°C° 0 mm 3 m/S 679 mmHg 18%
    11:00 +36°C° 0 mm 2 m/S 679 mmHg 15%
    12:00 +37°C° 0 mm 3 m/S 679 mmHg 13%
    13:00 +38°C° 0 mm 3 m/S 678 mmHg 11%
    14:00 +39°C° 0 mm 3 m/S 677 mmHg 8%
    15:00 +40°C° 0 mm 4 m/S 677 mmHg 8%
    16:00 +40°C° 0 mm 4 m/S 677 mmHg 8%
    17:00 +39°C° 0 mm 5 m/S 676 mmHg 9%
    18:00 +36°C° 0 mm 5 m/S 676 mmHg 11%
    19:00 +34°C° 0 mm 4 m/S 676 mmHg 13%
    20:00 +32°C° 0 mm 4 m/S 676 mmHg 15%
    21:00 +30°C° 0 mm 4 m/S 677 mmHg 16%
    22:00 +29°C° 0 mm 3 m/S 677 mmHg 18%
    23:00 +28°C° 0 mm 3 m/S 677 mmHg 19%

    Morgen, 18 November, Sonntag

    Zeit Temperatur Niederschläge Wind Luftdruck Luftfeuchtigkeit
    00:00 +28°C° 0 mm 3 m/S 677 mmHg 21%
    01:00 +27°C° 0 mm 3 m/S 677 mmHg 23%
    02:00 +26°C° 0 mm 3 m/S 677 mmHg 25%
    03:00 +26°C° 0 mm 3 m/S 677 mmHg 28%
    04:00 +25°C° 0 mm 3 m/S 677 mmHg 31%
    05:00 +25°C° 0 mm 3 m/S 677 mmHg 33%
    06:00 +27°C° 0 mm 4 m/S 677 mmHg 32%
    07:00 +29°C° 0 mm 5 m/S 678 mmHg 31%
    08:00 +32°C° 0 mm 6 m/S 678 mmHg 29%
    09:00 +34°C° 0 mm 5 m/S 678 mmHg 25%
    10:00 +36°C° 0 mm 5 m/S 678 mmHg 21%
    11:00 +38°C° 0 mm 4 m/S 679 mmHg 17%
    12:00 +40°C° 0 mm 4 m/S 678 mmHg 15%
    13:00 +41°C° 0 mm 5 m/S 677 mmHg 13%
    14:00 +42°C° 0 mm 5 m/S 677 mmHg 12%
    15:00 +41°C° 0 mm 5 m/S 676 mmHg 12%
    16:00 +41°C° 0 mm 6 m/S 676 mmHg 13%
    17:00 +40°C° 0 mm 6 m/S 676 mmHg 14%
    18:00 +38°C° 0 mm 6 m/S 676 mmHg 18%
    19:00 +35°C° 0 mm 7 m/S 676 mmHg 22%
    20:00 +33°C° 0 mm 7 m/S 677 mmHg 25%
    21:00 +32°C° 0 mm 6 m/S 677 mmHg 27%
    22:00 +32°C° 0 mm 6 m/S 677 mmHg 29%
    23:00 +30°C° 0 mm 6 m/S 677 mmHg 32%

    übermorgen, 19 November, Montag

    Zeit Temperatur Niederschläge Wind Luftdruck Luftfeuchtigkeit
    00:00 +29°C° 0 mm 6 m/S 677 mmHg 34%
    01:00 +28°C° 0 mm 6 m/S 677 mmHg 36%
    02:00 +27°C° 0 mm 5 m/S 677 mmHg 38%
    03:00 +26°C° 0 mm 6 m/S 677 mmHg 46%
    04:00 +24°C° 0 mm 7 m/S 677 mmHg 53%
    05:00 +23°C° 0 mm 8 m/S 678 mmHg 60%
    06:00 +23°C° 0 mm 8 m/S 678 mmHg 60%
    07:00 +24°C° 0 mm 8 m/S 679 mmHg 60%
    08:00 +24°C° 0 mm 8 m/S 679 mmHg 59%
    09:00 +28°C° 0 mm 8 m/S 679 mmHg 50%
    10:00 +32°C° 0 mm 7 m/S 679 mmHg 40%
    11:00 +34°C° 0 mm 7 m/S 679 mmHg 30%
    12:00 +36°C° 0 mm 6 m/S 678 mmHg 26%
    13:00 +37°C° 0 mm 5 m/S 678 mmHg 22%
    14:00 +40°C° 0 mm 4 m/S 677 mmHg 18%
    15:00 +39°C° 0 mm 5 m/S 676 mmHg 18%
    16:00 +39°C° 0 mm 5 m/S 676 mmHg 18%
    17:00 +39°C° 0 mm 6 m/S 676 mmHg 18%
    18:00 +36°C° 0 mm 5 m/S 676 mmHg 22%
    19:00 +34°C° 0 mm 5 m/S 676 mmHg 26%
    20:00 +32°C° 0 mm 5 m/S 676 mmHg 30%
    21:00 +30°C° 0 mm 5 m/S 676 mmHg 33%
    22:00 +29°C° 0 mm 5 m/S 676 mmHg 36%
    23:00 +28°C° 0 mm 5 m/S 677 mmHg 39%

    20 November, Dienstag

    Zeit Temperatur Niederschläge Wind Luftdruck Luftfeuchtigkeit
    00:00 +28°C° 0 mm 5 m/S 676 mmHg 42%
    01:00 +27°C° 0 mm 5 m/S 676 mmHg 44%
    02:00 +26°C° 0 mm 4 m/S 675 mmHg 47%
    03:00 +26°C° 0 mm 4 m/S 675 mmHg 48%
    04:00 +25°C° 0 mm 4 m/S 675 mmHg 49%
    05:00 +25°C° 0 mm 4 m/S 675 mmHg 50%
    06:00 +27°C° 0 mm 4 m/S 676 mmHg 45%
    07:00 +28°C° 0 mm 4 m/S 676 mmHg 39%
    08:00 +30°C° 0 mm 5 m/S 677 mmHg 34%
    09:00 +33°C° 0 mm 4 m/S 677 mmHg 29%
    10:00 +36°C° 0 mm 4 m/S 677 mmHg 25%
    11:00 +38°C° 0 mm 4 m/S 677 mmHg 20%
    12:00 +39°C° 0 mm 3 m/S 677 mmHg 18%
    13:00 +41°C° 0 mm 2 m/S 676 mmHg 15%
    14:00 +42°C° 0 mm 2 m/S 675 mmHg 13%
    15:00 +41°C° 0 mm 2 m/S 675 mmHg 14%
    16:00 +40°C° 0 mm 1 m/S 674 mmHg 14%
    17:00 +40°C° 0 mm 1 m/S 674 mmHg 15%
    18:00 +38°C° 0 mm 2 m/S 674 mmHg 17%
    19:00 +37°C° 0 mm 2 m/S 674 mmHg 19%
    20:00 +35°C° 0 mm 2 m/S 674 mmHg 21%
    21:00 +34°C° 0 mm 2 m/S 675 mmHg 22%
    22:00 +34°C° 0 mm 3 m/S 675 mmHg 24%
    23:00 +33°C° 0 mm 4 m/S 675 mmHg 26%

    21 November, Mittwoch

    Zeit Temperatur Niederschläge Wind Luftdruck Luftfeuchtigkeit
    00:00 +32°C° 0 mm 4 m/S 675 mmHg 29%
    01:00 +30°C° 0 mm 4 m/S 674 mmHg 32%
    02:00 +29°C° 0 mm 3 m/S 674 mmHg 34%
    03:00 +28°C° 0 mm 4 m/S 673 mmHg 36%
    04:00 +27°C° 0 mm 4 m/S 673 mmHg 37%
    05:00 +27°C° 0 mm 4 m/S 673 mmHg 39%
    06:00 +28°C° 0 mm 4 m/S 674 mmHg 35%
    07:00 +29°C° 0 mm 4 m/S 675 mmHg 32%
    08:00 +31°C° 0 mm 3 m/S 675 mmHg 28%
    09:00 +34°C° 0 mm 3 m/S 675 mmHg 25%
    10:00 +36°C° 0 mm 3 m/S 675 mmHg 21%
    11:00 +39°C° 0 mm 2 m/S 676 mmHg 18%
    12:00 +39°C° 0 mm 3 m/S 675 mmHg 17%
    13:00 +40°C° 0 mm 3 m/S 674 mmHg 16%
    14:00 +40°C° 0 mm 3 m/S 674 mmHg 16%
    15:00 +40°C° 0 mm 3 m/S 673 mmHg 16%
    16:00 +40°C° 0 mm 3 m/S 673 mmHg 16%
    17:00 +39°C° 0 mm 2 m/S 673 mmHg 17%
    18:00 +36°C° 0.2 mm 4 m/S 674 mmHg 25%
    19:00 +33°C° 0.2 mm 6 m/S 674 mmHg 34%
    20:00 +29°C° 0.2 mm 8 m/S 674 mmHg 42%
    21:00 +28°C° 0.4 mm 7 m/S 675 mmHg 44%
    22:00 +28°C° 0.4 mm 6 m/S 675 mmHg 45%
    23:00 +27°C° 0.4 mm 5 m/S 675 mmHg 46%

    22 November, Donnerstag

    Zeit Temperatur Niederschläge Wind Luftdruck Luftfeuchtigkeit
    00:00 +27°C° 0.4 mm 5 m/S 675 mmHg 47%
    01:00 +27°C° 0.4 mm 5 m/S 674 mmHg 49%
    02:00 +26°C° 0.4 mm 5 m/S 674 mmHg 50%
    03:00 +26°C° 0 mm 4 m/S 674 mmHg 53%
    04:00 +25°C° 0 mm 3 m/S 674 mmHg 56%
    05:00 +24°C° 0 mm 3 m/S 674 mmHg 59%
    06:00 +26°C° 0 mm 3 m/S 674 mmHg 56%
    07:00 +27°C° 0 mm 4 m/S 675 mmHg 54%
    08:00 +28°C° 0 mm 5 m/S 676 mmHg 52%
    09:00 +30°C° 0 mm 4 m/S 676 mmHg 46%
    10:00 +33°C° 0 mm 4 m/S 676 mmHg 40%
    11:00 +35°C° 0 mm 4 m/S 676 mmHg 35%
    12:00 +36°C° 0 mm 4 m/S 676 mmHg 31%
    13:00 +37°C° 0 mm 4 m/S 675 mmHg 27%
    14:00 +39°C° 0 mm 3 m/S 675 mmHg 23%
    15:00 +38°C° 0 mm 4 m/S 674 mmHg 24%
    16:00 +38°C° 0 mm 4 m/S 674 mmHg 25%
    17:00 +37°C° 0 mm 4 m/S 674 mmHg 25%
    18:00 +35°C° 0 mm 6 m/S 674 mmHg 34%
    19:00 +32°C° 0 mm 7 m/S 674 mmHg 42%
    20:00 +29°C° 0 mm 8 m/S 674 mmHg 50%
    21:00 +28°C° 0 mm 8 m/S 675 mmHg 53%
    22:00 +27°C° 0 mm 8 m/S 675 mmHg 55%
    23:00 +26°C° 0 mm 8 m/S 675 mmHg 58%
    Mehr zeigen